Flag for Germany Weather past 2 weeks in Calw, Baden-Württemberg, Germany

Now
51 °F

Passing clouds.


Feels Like: 51 °F
Forecast: 50 / 75 °F
Wind: 1 mph from Southwest

Location: Stuttgart-Echterdingen

Current Time: Jul 31, 2015 at 5:52:21 AM

Latest Report: Jul 31, 2015 at 4:00 AM


Visibility: 31 mi

Pressure: 30.11 "Hg

Humidity: 78%

Dew point: 45 °F

Location of CalwLocation

Historic Weather in Calw — Graph

°F

Calw temperature yesterday

Maximum temperature yesterday: 67 °F (at 8:00 PM)
Minimum temperature yesterday: 49 °F (at 4:00 AM)
Average temperature yesterday: 60 °F

Past Weeks' High & Low Weather Summary

 TemperatureHumidityPressure
High94 °F (Jul 22, 3:00 PM)92% (Jul 23, 8:00 AM)30.11 "Hg (Jul 23, 8:00 AM)
Low49 °F (Jul 30, 4:00 AM)26% (Jul 22, 3:00 PM)29.65 "Hg (Jul 24, 8:00 PM)
Average71 °F60%29.91 "Hg
* Reported Jul 16 4:00 AM — Jul 31 4:00 AM, Calw, Weather by CustomWeather, © 2015

Note: Actual official high and low records may vary slightly from our data, if they occured in-between our weather recording intervals... More about our weather records

Advertising

Calw weather history for previous 24 hours

 ConditionsComfort  
Time TempWeatherWind HumidityBarometerVisibility
4:00 AM
Fri, Jul 31
51 °FPassing clouds.1 mph78%30.11 "Hg31 mi
3:00 AM52 °FPassing clouds.3 mph77%30.11 "Hg31 mi
2:00 AM54 °FPassing clouds.3 mph70%30.10 "Hg31 mi
1:00 AM55 °FPassing clouds.5 mph67%30.09 "Hg31 mi
10:00 PM
Thu, Jul 30
62 °FPassing clouds.3 mph49%30.03 "Hg37 mi
9:00 PM64 °FPartly sunny.2 mph44%30.01 "Hg40 mi
8:00 PM67 °FScattered clouds.7 mph40%29.98 "Hg40 mi
7:00 PM66 °FPartly sunny.1 mph45%29.98 "Hg40 mi
6:00 PM67 °FOvercast.1 mph41%29.98 "Hg40 mi
4:00 PM66 °FScattered clouds.5 mph43%29.99 "Hg40 mi
3:00 PM66 °FPartly sunny.3 mph44%29.99 "Hg37 mi
2:00 PM64 °FOvercast.6 mph47%30.00 "Hg37 mi
1:00 PM64 °FOvercast.5 mph51%30.00 "Hg40 mi
12:00 PM62 °FOvercast.5 mph55%30.00 "Hg40 mi
10:00 AM60 °FPartly sunny.1 mph63%30.00 "Hg40 mi
9:00 AM55 °FOvercast.1 mph79%30.01 "Hg43 mi
8:00 AM53 °FOvercast.1 mph79%30.01 "Hg47 mi
7:00 AM50 °FOvercast.1 mph91%30.01 "Hg47 mi
Weather by CustomWeather, © 2015

See weather overviewHow to use our weather pages